Location: Llanllwchaiarn
(52.1833°N, 4.3667°W)
Time: 07:13:00
(UTC+00:00)

Daily predictions for brighter satellites

Satellite Brightness Start Highest point End
(mag) Time Altitude Azimuth Time Altitude Azimuth Time Altitude Azimuth
Cosmos 2297 Rocket 4.0 18:48:30 10° WSW 18:53:35 33° NW 18:58:42 10° NNE
USA 238 DEB 4.1 18:47:18 10° NW 18:54:19 60° NE 19:01:40 10° ESE
USA 238 4.1 18:47:23 10° NW 18:54:25 60° NE 19:01:46 10° ESE
Cosmos 1842 3.2 18:50:49 10° N 18:54:43 89° ENE 18:58:35 10° S
NOSS 3-1 (C) 4.4 18:51:33 10° WSW 18:57:11 50° NNW 19:03:54 10° NE
Cosmos 1025 Rocket 3.7 18:59:49 10° N 19:03:52 36° ENE 19:07:56 10° SE
CZ-2C R/B 3.7 19:00:11 10° NE 19:04:39 25° E 19:09:09 10° SE
ARGOS 3.2 18:59:32 10° SSE 19:04:48 60° ENE 19:10:06 10° N
Cosmos 990 Rocket 3.9 19:01:21 10° SSW 19:06:29 82° ESE 19:11:40 10° NNE
Cosmos 1707 2.9 19:03:30 10° N 19:07:16 48° ENE 19:10:59 10° SSE
Cosmos 1782 Rocket 3.5 19:02:56 10° S 19:07:19 68° E 19:11:46 10° NNE
Cosmos 1908 Rocket 4.0 19:05:04 10° SSW 19:09:24 69° WNW 19:13:49 10° N
Cosmos 1743 4.1 19:05:51 10° SSW 19:09:31 43° WNW 19:13:12 10° N
NOSS 8 (F) 4.0 19:06:58 10° SW 19:10:06 80° SE 19:13:09 10° NE
Meteor 2-11 Rocket 4.5 19:04:42 10° S 19:10:51 81° E 19:17:03 10° NNE
Cosmos 2233 Rocket 4.2 19:09:12 10° SSW 19:15:27 80° W 19:21:40 10° N
CREW DRAGON DEMO-1 DEB 2.7 19:12:25 10° W 19:15:27 83° S 19:18:00 14° E
USA 186 2.3 19:13:44 10° SE 19:16:41 38° ENE 19:19:45 10° N
Ariane Rocket 3.2 19:14:52 10° SE 19:19:45 51° ENE 19:24:41 10° N
SJ-6B 3.4 19:16:35 10° SE 19:20:01 35° ENE 19:23:30 10° N
CZ-2C R/B 3.6 19:15:32 10° S 19:20:48 70° WSW 19:26:25 10° NNW
Nadezhda 4 Rocket 4.2 19:15:25 10° N 19:21:20 48° ENE 19:27:14 10° SSE
NOSS 3-2 (A) 4.0 19:14:48 10° NW 19:22:04 79° NE 19:30:19 10° SE
FREGAT/IRIS 3.3 19:20:39 15° ESE 19:22:11 26° ENE 19:24:27 10° N
Cosmos 2263 Rocket 2.2 19:17:01 10° SSW 19:22:35 85° ESE 19:28:14 10° NNE
NOSS 2-2 (C) 3.7 19:21:36 10° S 19:24:49 34° ESE 19:28:25 10° ENE
HJ-1C 3.9 19:22:59 10° S 19:26:14 60° WSW 19:29:31 10° NNW
Lacrosse 4 Rocket 3.7 19:25:39 10° N 19:27:21 12° NNE 19:29:02 10° NE
Cosmos 1975 Rocket 3.6 19:23:27 10° NNW 19:27:45 61° W 19:32:00 10° S
Meteor 2-9 Rocket 4.4 19:22:12 10° SSW 19:28:05 83° WNW 19:33:53 10° NNE
MOS 1 4.5 19:22:57 10° SE 19:28:30 56° ENE 19:34:05 10° N
Cosmos 1844 Rocket 3.5 19:25:11 10° SSE 19:29:43 26° ESE 19:34:17 10° NE
Cosmos 2034 Rocket 4.4 19:24:17 10° SSE 19:30:14 44° E 19:36:11 10° NNE
COSMO-SKYMED 1 4.5 19:27:18 10° N 19:31:16 35° WNW 19:35:12 10° SW
ATLAS CENTAUR R/B 3.6 19:31:12 10° WNW 19:34:05 20° NNW 19:36:54 10° NNE
Cosmos 2227 4.4 19:30:20 10° SW 19:36:05 77° WNW 19:41:50 10° NNE
SPOT 3 Rocket 4.2 19:32:57 14° ESE 19:36:48 37° ENE 19:41:30 10° N
Cosmos 1898 Rocket 3.9 19:31:57 10° SW 19:37:05 67° WNW 19:42:18 10° NNE
Cosmos 1867 4.3 19:37:34 10° NW 19:42:52 51° WSW 19:48:07 10° SSE
USA 234 4.1 19:38:17 10° ENE 19:43:33 25° SE 19:48:47 10° S
Resurs 01 Rocket 2.6 19:42:54 20° ESE 19:45:02 29° ENE 19:48:53 10° N
Lacrosse 5 rocket 2.2 19:41:04 10° W 19:45:17 51° NNW 19:49:28 11° ENE
Cosmos 1833 Rocket 3.9 19:43:31 10° NNW 19:48:18 27° NE 19:51:25 17° E
MetOp-A 4.1 19:43:25 10° SSE 19:48:44 69° ENE 19:54:05 10° NNW
Sich 1 Rocket 3.8 19:45:44 10° SSW 19:50:14 77° W 19:54:50 10° N
Cosmos 372 Rocket 3.9 19:46:01 10° SSW 19:51:13 67° ESE 19:56:25 10° NNE
MOS 1 Rocket 3.2 19:47:35 10° NNE 19:52:09 81° WNW 19:56:29 10° SSW
OBJECT-B 1.2 19:52:33 29° ESE 19:53:44 44° ENE 19:56:52 10° N
IRS-1A Rocket 4.4 19:48:52 10° SSE 19:54:47 89° WSW 20:00:41 10° NNW
Cosmos 1626 3.2 19:52:27 10° N 19:55:36 25° ENE 19:56:03 25° E
NOSS 3-2 (C) 4.0 19:49:36 10° NW 19:56:54 82° NE 20:03:03 20° SE
SJ 16-02 3.8 19:54:45 10° WSW 19:58:22 25° NW 20:02:01 10° N
DMSP B5D2-2 4.2 19:53:29 10° NNE 19:58:40 52° E 20:03:49 10° S
Meteor 1-12 Rocket 4.3 19:53:29 10° S 19:59:24 85° E 20:05:14 10° NNE
Cosmos 2150 Rocket 4.1 19:56:31 10° S 20:01:45 55° ESE 20:07:04 10° NNE
ARIANE 5 R/B 3.7 20:01:02 24° E 20:02:03 26° ENE 20:05:39 10° N
Abrixas rocket 2.5 20:00:07 10° WSW 20:02:48 38° S 20:03:00 37° S
BREEZE-M TANK 3.8 19:55:21 10° SW 20:03:06 33° S 20:04:37 25° SE
Cosmos 1937 Rocket 4.3 20:00:02 10° SW 20:05:10 55° WNW 20:10:19 10° NNE
Okean 2 Rocket 3.2 20:04:11 10° SSW 20:08:40 77° W 20:13:11 10° N
Cosmos 1125 Rocket 3.8 20:04:37 10° S 20:09:37 44° ESE 20:14:40 10° NE
Cosmos 2285 Rocket 4.3 20:03:49 10° S 20:09:41 42° ESE 20:15:36 10° NE
Okean 1 Rocket 3.4 20:08:19 26° SSE 20:10:22 43° E 20:14:38 10° NNE
SL-08 RB Rocket 4.4 20:06:39 10° S 20:11:09 53° W 20:15:38 10° NNW
Cosmos 1300 Rocket 4.0 20:12:37 10° SSW 20:17:00 65° WNW 20:21:26 10° N
Cosmos 1464 Rocket 4.2 20:11:40 10° SSW 20:17:47 72° WNW 20:23:58 10° N
ERS-1 Rocket 4.4 20:17:27 21° ENE 20:18:18 22° NE 20:22:04 10° N
Cosmos 1092 Rocket 3.9 20:14:48 10° N 20:20:59 78° ENE 20:25:37 19° SSE
Resurs 1-3 3.5 20:18:56 28° SSE 20:21:15 83° ENE 20:25:41 10° NNW
Meteor 2-13 Rocket 4.4 20:15:08 10° N 20:21:21 82° E 20:26:06 18° SSE
NOSS 2-2 (E) 3.5 20:18:12 10° SW 20:21:47 68° NW 20:26:05 10° NE
Meteor 2-5 Rocket 3.7 20:16:31 10° N 20:22:10 72° ENE 20:25:27 26° SSE
Cosmos 2195 Rocket 4.4 20:16:54 10° N 20:23:13 73° ENE 20:27:20 22° SSE
Cosmos 1805 3.2 20:24:12 47° SE 20:24:58 58° E 20:28:51 10° NNE
Cosmos 1674 2.9 20:21:12 10° NNW 20:25:03 71° W 20:27:00 28° S
Cosmos 2026 Rocket 4.0 20:20:49 10° N 20:27:11 69° ENE 20:30:53 26° SSE
ATLAS 2AS CENTAUR R/B 3.6 20:20:51 10° S 20:27:38 32° ESE 20:34:22 10° NE
ISS -2.7 20:26:50 10° SW 20:29:08 34° SSW 20:29:08 34° SSW
NOSS 2-2 (D) 3.4 20:26:55 10° SW 20:30:27 70° NW 20:34:41 10° NE
Cosmos 2082 Rocket 3.3 20:25:33 10° NNW 20:30:31 31° NE 20:32:16 26° ENE
H-2A R/B 4.2 20:27:03 10° SW 20:31:04 24° W 20:35:10 10° NW
BREEZE-M DEB (TANK) 4.4 20:29:19 10° SW 20:33:24 57° SE 20:49:21 10° ENE
CENTAUR R/B 3.2 20:25:59 10° NW 20:33:54 78° SW 20:39:10 27° SSE
Cosmos 1733 3.6 20:36:18 47° ENE 20:36:18 47° ENE 20:39:25 10° NNE
Meteor 1-22 Rocket 4.5 20:34:26 33° SSE 20:36:44 51° E 20:42:34 10° NNE
Cosmos 1892 Rocket 3.7 20:33:16 10° N 20:37:31 49° ENE 20:37:39 49° E
CZ-2C R/B 3.6 20:33:55 10° NNE 20:38:20 58° ESE 20:38:59 52° SE
Cosmos 1428 Rocket 4.4 20:32:34 10° N 20:38:55 77° E 20:42:07 31° SSE
ATLAS 3B R/B 2.9 20:34:31 10° NW 20:41:15 62° NE 20:44:10 36° ESE
COSMOS 2406 3.3 20:35:52 10° NNW 20:41:31 62° NE 20:43:10 44° ESE
SL-14 R/B 3.1 20:39:19 10° N 20:43:14 71° ENE 20:43:14 71° ENE
SPOT 1/Viking Rocket 3.9 20:43:22 42° E 20:44:08 46° ENE 20:49:03 10° N
Meteor 1-24 Rocket 3.6 20:39:26 10° NNW 20:44:57 82° ENE 20:47:08 39° SSE
USA 238 DEB 4.5 20:38:26 10° NW 20:45:19 50° WSW 20:49:57 22° S
CZ-2C R/B 3.1 20:39:55 10° N 20:45:23 66° WNW 20:50:55 10° SSW
USA 238 4.5 20:38:32 10° NW 20:45:26 51° WSW 20:50:02 22° S
Cosmos 2279 Rocket 4.3 20:44:35 41° ESE 20:45:48 46° E 20:51:44 10° NNE
Cosmos 1269 Rocket 3.9 20:41:01 10° NNW 20:46:23 88° ENE 20:48:00 46° SSE
CREW DRAGON DEMO-1 DEB 4.5 20:48:04 10° W 20:49:52 30° WSW 20:49:52 30° WSW
Spot 2 Rocket 3.5 20:51:06 53° E 20:51:45 57° ENE 20:56:43 10° N
Exosat Rocket 3.4 20:50:11 10° SSW 20:55:36 84° ESE 21:00:38 10° NNE
Cosmos 1766 3.3 20:58:56 74° W 20:59:03 75° W 21:03:01 10° N
Terra 3.0 21:02:36 28° NE 21:02:36 28° NE 21:06:10 10° N
MetOp-B 4.0 21:01:41 53° SSE 21:03:02 89° WSW 21:08:27 10° NNW
Cosmos 2278 Rocket 4.1 21:07:57 15° NE 21:07:57 15° NE 21:09:06 10° NE
Cosmos 1844 3.6 20:58:55 10° SSW 21:04:37 87° WNW 21:10:18 10° NNE
Lacrosse 4 Rocket 2.4 21:03:22 10° NNW 21:06:37 35° NNE 21:06:37 35° NNE
Cosmos 2263 Rocket 4.3 21:02:35 10° W 21:07:13 26° NW 21:11:55 10° NNE
Cosmos 909 Rocket 4.3 21:01:15 10° NW 21:07:58 59° NE 21:09:31 47° E
Okean 1-7 Rocket 3.6 21:04:01 10° N 21:08:19 70° NE 21:08:19 70° NE
Cosmos 1844 Rocket 3.0 21:07:38 10° SW 21:13:11 66° NW 21:18:46 10° NNE
ATLAS CENTAUR R/B 3.9 21:12:40 10° NNW 21:14:18 12° N 21:15:54 10° NNE
Cosmos 2251 Rocket 3.7 21:14:35 10° NNW 21:19:53 57° ENE 21:19:53 57° ENE
IGS 5A 3.8 21:20:34 63° NW 21:20:34 63° NW 21:24:10 10° NNW
Resurs 01 Rocket 2.7 21:20:28 36° SW 21:21:24 41° W 21:25:38 10° NNW
Cosmos 1340 Rocket 4.1 21:24:25 35° N 21:24:25 35° N 21:26:50 10° N
Lacrosse 5 rocket 2.3 21:20:46 10° WNW 21:25:04 47° N 21:25:05 47° N
OBJECT-B 3.6 21:25:45 14° WSW 21:26:20 14° W 21:28:14 10° NW
USA 234 3.1 21:24:43 38° ENE 21:27:22 69° SE 21:33:54 10° SW
SPOT 5 3.2 21:28:43 60° NE 21:28:43 60° NE 21:33:35 10° N
Cosmos 2266 Rocket 3.8 21:23:23 10° N 21:29:26 66° ENE 21:29:34 65° E
Cosmos 1626 3.8 21:27:35 10° NNW 21:30:36 30° W 21:30:36 30° W
Cosmos 1833 Rocket 2.6 21:27:12 10° NNW 21:32:54 82° WSW 21:33:07 80° SSW
Cosmos 1455 Rocket 4.2 21:39:31 37° N 21:39:31 37° N 21:42:12 10° N
ARIANE 5 R/B 3.5 21:38:36 44° W 21:38:36 44° W 21:42:31 10° NNW
Cosmos 1655 Rocket 3.9 21:34:40 10° N 21:40:58 85° W 21:41:39 73° S
Cosmos 1461 4.5 21:44:58 10° NW 21:48:46 34° NNE 21:48:46 34° NNE
NOSS 3-4 (A) 4.2 21:57:18 40° NE 21:57:18 40° NE 22:01:19 10° NE
NOSS 3-4 (C) 4.3 21:57:30 38° NE 21:57:30 38° NE 22:01:26 10° NE
ERS-1 Rocket 3.4 21:57:27 60° NW 21:57:27 60° NW 22:01:41 10° NNW
Cosmos 2098 Rocket 4.4 22:02:35 10° NNW 22:09:39 59° W 22:10:27 56° WSW
Cosmos 2082 Rocket 2.6 22:09:28 10° NW 22:14:06 57° WNW 22:14:06 57° WNW
ATLAS 2AS CENTAUR R/B 2.9 22:10:01 10° SW 22:18:01 86° NW 22:25:54 10° NE
ATLAS 3B R/B 3.3 22:25:24 10° NW 22:31:24 45° WSW 22:31:24 45° WSW
Terra 3.5 22:41:29 31° NW 22:41:29 31° NW 22:44:16 10° NNW
Lacrosse 4 Rocket 4.2 22:42:07 10° NW 22:42:54 15° NW 22:42:54 15° NW
Cosmos 2278 Rocket 3.2 22:49:45 42° N 22:49:45 42° N 22:53:40 10° NNE
ATLAS CENTAUR R/B 4.4 22:51:47 10° NNW 22:52:06 11° NNW 22:52:06 11° NNW
Lacrosse 5 rocket 4.3 23:00:03 10° WNW 23:00:42 14° WNW 23:00:42 14° WNW
USA 234 3.9 23:03:57 10° ENE 23:12:14 48° WNW 23:16:55 10° W
CZ-4C R/B 4.0 23:34:17 26° NE 23:34:17 26° NE 23:37:01 10° NE
USA 229 DEB 4.3 23:33:49 10° NW 23:40:43 56° NNE 23:40:43 56° NNE
USA 229 4.3 23:33:55 10° NW 23:40:49 56° NNE 23:40:49 56° NNE
